#datetime,building,power
2023-07-26T00:00:00,crh,10.87
2023-07-26T00:01:00,crh,10.43
2023-07-26T00:02:00,crh,8.90
2023-07-26T00:03:00,crh,9.42
2023-07-26T00:04:00,crh,9.56
2023-07-26T00:05:00,crh,5.57
2023-07-26T00:06:00,crh,5.58
2023-07-26T00:07:00,crh,5.59
2023-07-26T00:08:00,crh,6.83
2023-07-26T00:09:00,crh,7.18
2023-07-26T00:10:00,crh,4.91
2023-07-26T00:11:00,crh,4.90
2023-07-26T00:12:00,crh,6.47
2023-07-26T00:13:00,crh,5.57
2023-07-26T00:14:00,crh,5.58
2023-07-26T00:15:00,crh,5.57
2023-07-26T00:16:00,crh,5.57
2023-07-26T00:17:00,crh,5.20
2023-07-26T00:18:00,crh,4.88
2023-07-26T00:19:00,crh,6.44
2023-07-26T00:20:00,crh,5.56
2023-07-26T00:21:00,crh,7.10
2023-07-26T00:22:00,crh,7.03
2023-07-26T00:23:00,crh,5.22
2023-07-26T00:24:00,crh,4.84
2023-07-26T00:25:00,crh,4.87
2023-07-26T00:26:00,crh,4.79
2023-07-26T00:27:00,crh,9.20
2023-07-26T00:28:00,crh,9.38
2023-07-26T00:29:00,crh,9.43
2023-07-26T00:30:00,crh,9.43
2023-07-26T00:31:00,crh,9.47
2023-07-26T00:32:00,crh,11.11
2023-07-26T00:33:00,crh,9.54
2023-07-26T00:34:00,crh,9.00
2023-07-26T00:35:00,crh,6.44
2023-07-26T00:36:00,crh,4.88
2023-07-26T00:37:00,crh,5.96
2023-07-26T00:38:00,crh,7.49
2023-07-26T00:39:00,crh,5.94
2023-07-26T00:40:00,crh,5.23
2023-07-26T00:41:00,crh,8.04
2023-07-26T00:42:00,crh,5.23
2023-07-26T00:43:00,crh,5.91
2023-07-26T00:44:00,crh,7.45
2023-07-26T00:45:00,crh,5.58
2023-07-26T00:46:00,crh,4.89
2023-07-26T00:47:00,crh,4.83
2023-07-26T00:48:00,crh,5.15
2023-07-26T00:49:00,crh,5.85
2023-07-26T00:50:00,crh,5.85
2023-07-26T00:51:00,crh,5.87
2023-07-26T00:52:00,crh,4.82
2023-07-26T00:53:00,crh,4.81
2023-07-26T00:54:00,crh,5.46
2023-07-26T00:55:00,crh,5.48
2023-07-26T00:56:00,crh,5.46
2023-07-26T00:57:00,crh,5.47
2023-07-26T00:58:00,crh,9.34
2023-07-26T00:59:00,crh,9.53
2023-07-26T01:00:00,crh,9.50
2023-07-26T01:01:00,crh,8.80
2023-07-26T01:02:00,crh,8.80
2023-07-26T01:03:00,crh,10.41
2023-07-26T01:04:00,crh,9.47
2023-07-26T01:05:00,crh,5.55
2023-07-26T01:06:00,crh,7.10
2023-07-26T01:07:00,crh,5.21
2023-07-26T01:08:00,crh,4.55
2023-07-26T01:09:00,crh,4.74
2023-07-26T01:10:00,crh,4.87
2023-07-26T01:11:00,crh,7.13
2023-07-26T01:12:00,crh,5.55
2023-07-26T01:13:00,crh,5.56
2023-07-26T01:14:00,crh,5.56
2023-07-26T01:15:00,crh,7.76
2023-07-26T01:16:00,crh,6.53
2023-07-26T01:17:00,crh,6.54
2023-07-26T01:18:00,crh,5.00
2023-07-26T01:19:00,crh,7.28
2023-07-26T01:20:00,crh,5.62
2023-07-26T01:21:00,crh,5.62
2023-07-26T01:22:00,crh,5.62
2023-07-26T01:23:00,crh,5.11
2023-07-26T01:24:00,crh,5.11
2023-07-26T01:25:00,crh,5.10
2023-07-26T01:26:00,crh,4.48
2023-07-26T01:27:00,crh,5.60
2023-07-26T01:28:00,crh,7.14
2023-07-26T01:29:00,crh,10.13
2023-07-26T01:30:00,crh,10.51
2023-07-26T01:31:00,crh,8.32
2023-07-26T01:32:00,crh,11.95
2023-07-26T01:33:00,crh,9.07
2023-07-26T01:34:00,crh,9.03
2023-07-26T01:35:00,crh,11.34
2023-07-26T01:36:00,crh,9.73
2023-07-26T01:37:00,crh,5.85
2023-07-26T01:38:00,crh,5.18
2023-07-26T01:39:00,crh,4.79
2023-07-26T01:40:00,crh,5.15
2023-07-26T01:41:00,crh,7.39
2023-07-26T01:42:00,crh,5.84
2023-07-26T01:43:00,crh,5.83
2023-07-26T01:44:00,crh,7.05
2023-07-26T01:45:00,crh,6.73
2023-07-26T01:46:00,crh,5.15
2023-07-26T01:47:00,crh,5.32
2023-07-26T01:48:00,crh,5.43
2023-07-26T01:49:00,crh,5.40
2023-07-26T01:50:00,crh,7.00
2023-07-26T01:51:00,crh,4.73
2023-07-26T01:52:00,crh,5.98
2023-07-26T01:53:00,crh,4.05
2023-07-26T01:54:00,crh,6.92
2023-07-26T01:55:00,crh,5.38
2023-07-26T01:56:00,crh,6.96
2023-07-26T01:57:00,crh,6.62
2023-07-26T01:58:00,crh,4.75
2023-07-26T01:59:00,crh,4.78
2023-07-26T02:00:00,crh,4.83
2023-07-26T02:01:00,crh,6.68
2023-07-26T02:02:00,crh,5.47
2023-07-26T02:03:00,crh,9.25
2023-07-26T02:04:00,crh,9.43
2023-07-26T02:05:00,crh,9.41
2023-07-26T02:06:00,crh,8.74
2023-07-26T02:07:00,crh,8.37
2023-07-26T02:08:00,crh,8.74
2023-07-26T02:09:00,crh,10.44
2023-07-26T02:10:00,crh,5.55
2023-07-26T02:11:00,crh,7.11
2023-07-26T02:12:00,crh,4.86
2023-07-26T02:13:00,crh,4.73
2023-07-26T02:14:00,crh,6.28
2023-07-26T02:15:00,crh,6.28
2023-07-26T02:16:00,crh,4.76
2023-07-26T02:17:00,crh,5.15
2023-07-26T02:18:00,crh,5.52
2023-07-26T02:19:00,crh,5.50
2023-07-26T02:20:00,crh,5.73
2023-07-26T02:21:00,crh,4.85
2023-07-26T02:22:00,crh,4.50
2023-07-26T02:23:00,crh,6.07
2023-07-26T02:24:00,crh,5.52
2023-07-26T02:25:00,crh,5.14
2023-07-26T02:26:00,crh,5.15
2023-07-26T02:27:00,crh,5.54
2023-07-26T02:28:00,crh,4.84
2023-07-26T02:29:00,crh,4.49
2023-07-26T02:30:00,crh,6.42
2023-07-26T02:31:00,crh,5.49
2023-07-26T02:32:00,crh,7.04
2023-07-26T02:33:00,crh,5.09
2023-07-26T02:34:00,crh,6.75
2023-07-26T02:35:00,crh,5.48
2023-07-26T02:36:00,crh,10.59
2023-07-26T02:37:00,crh,8.70
2023-07-26T02:38:00,crh,10.32
2023-07-26T02:39:00,crh,9.35
2023-07-26T02:40:00,crh,10.94
2023-07-26T02:41:00,crh,11.34
2023-07-26T02:42:00,crh,9.95
2023-07-26T02:43:00,crh,5.22
2023-07-26T02:44:00,crh,6.80
2023-07-26T02:45:00,crh,4.84
2023-07-26T02:46:00,crh,5.15
2023-07-26T02:47:00,crh,5.87
2023-07-26T02:48:00,crh,5.85
2023-07-26T02:49:00,crh,5.51
2023-07-26T02:50:00,crh,6.75
2023-07-26T02:51:00,crh,5.17
2023-07-26T02:52:00,crh,4.46
2023-07-26T02:53:00,crh,4.60
2023-07-26T02:54:00,crh,5.35
2023-07-26T02:55:00,crh,5.31
2023-07-26T02:56:00,crh,5.33
2023-07-26T02:57:00,crh,13.74
2023-07-26T02:58:00,crh,13.84
2023-07-26T02:59:00,crh,13.77
2023-07-26T03:00:00,crh,5.25
2023-07-26T03:01:00,crh,6.48
2023-07-26T03:02:00,crh,5.27
2023-07-26T03:03:00,crh,5.42
2023-07-26T03:04:00,crh,6.10
2023-07-26T03:05:00,crh,4.61
2023-07-26T03:06:00,crh,6.17
2023-07-26T03:07:00,crh,4.53
2023-07-26T03:08:00,crh,5.24
2023-07-26T03:09:00,crh,4.90
2023-07-26T03:10:00,crh,5.25
2023-07-26T03:11:00,crh,6.97
2023-07-26T03:12:00,crh,7.66
2023-07-26T03:13:00,crh,7.75
2023-07-26T03:14:00,crh,8.13
2023-07-26T03:15:00,crh,9.30
2023-07-26T03:16:00,crh,9.10
2023-07-26T03:17:00,crh,9.26
2023-07-26T03:18:00,crh,9.27
2023-07-26T03:19:00,crh,4.70
2023-07-26T03:20:00,crh,4.34
2023-07-26T03:21:00,crh,4.70
2023-07-26T03:22:00,crh,5.37
2023-07-26T03:23:00,crh,5.35
2023-07-26T03:24:00,crh,5.00
2023-07-26T03:25:00,crh,5.03
2023-07-26T03:26:00,crh,5.13
2023-07-26T03:27:00,crh,4.79
2023-07-26T03:28:00,crh,4.77
2023-07-26T03:29:00,crh,4.82
2023-07-26T03:30:00,crh,5.40
2023-07-26T03:31:00,crh,5.05
2023-07-26T03:32:00,crh,5.10
2023-07-26T03:33:00,crh,5.09
2023-07-26T03:34:00,crh,4.08
2023-07-26T03:35:00,crh,4.62
2023-07-26T03:36:00,crh,4.73
2023-07-26T03:37:00,crh,6.33
2023-07-26T03:38:00,crh,5.04
2023-07-26T03:39:00,crh,5.40
2023-07-26T03:40:00,crh,6.98
2023-07-26T03:41:00,crh,5.00
2023-07-26T03:42:00,crh,4.69
2023-07-26T03:43:00,crh,8.35
2023-07-26T03:44:00,crh,8.52
2023-07-26T03:45:00,crh,8.51
2023-07-26T03:46:00,crh,9.28
2023-07-26T03:47:00,crh,9.16
2023-07-26T03:48:00,crh,10.01
2023-07-26T03:49:00,crh,9.21
2023-07-26T03:50:00,crh,5.64
2023-07-26T03:51:00,crh,4.97
2023-07-26T03:52:00,crh,6.04
2023-07-26T03:53:00,crh,4.77
2023-07-26T03:54:00,crh,5.06
2023-07-26T03:55:00,crh,6.67
2023-07-26T03:56:00,crh,6.87
2023-07-26T03:57:00,crh,5.34
2023-07-26T03:58:00,crh,4.60
2023-07-26T03:59:00,crh,4.97
2023-07-26T04:00:00,crh,4.90
2023-07-26T04:01:00,crh,4.56
2023-07-26T04:02:00,crh,5.63
2023-07-26T04:03:00,crh,5.28
2023-07-26T04:04:00,crh,6.50
2023-07-26T04:05:00,crh,6.16
2023-07-26T04:06:00,crh,4.60
2023-07-26T04:07:00,crh,5.82
2023-07-26T04:08:00,crh,5.23
2023-07-26T04:09:00,crh,4.95
2023-07-26T04:10:00,crh,6.18
2023-07-26T04:11:00,crh,6.51
2023-07-26T04:12:00,crh,3.62
2023-07-26T04:13:00,crh,5.20
2023-07-26T04:14:00,crh,5.52
2023-07-26T04:15:00,crh,3.54
2023-07-26T04:16:00,crh,6.40
2023-07-26T04:17:00,crh,8.14
2023-07-26T04:18:00,crh,9.37
2023-07-26T04:19:00,crh,8.81
2023-07-26T04:20:00,crh,8.51
2023-07-26T04:21:00,crh,9.58
2023-07-26T04:22:00,crh,8.30
2023-07-26T04:23:00,crh,9.51
2023-07-26T04:24:00,crh,5.85
2023-07-26T04:25:00,crh,3.92
2023-07-26T04:26:00,crh,4.96
2023-07-26T04:27:00,crh,4.62
2023-07-26T04:28:00,crh,4.99
2023-07-26T04:29:00,crh,5.57
2023-07-26T04:30:00,crh,5.86
2023-07-26T04:31:00,crh,4.33
2023-07-26T04:32:00,crh,4.13
2023-07-26T04:33:00,crh,6.51
2023-07-26T04:34:00,crh,4.97
2023-07-26T04:35:00,crh,6.53
2023-07-26T04:36:00,crh,4.99
2023-07-26T04:37:00,crh,5.94
2023-07-26T04:38:00,crh,4.66
2023-07-26T04:39:00,crh,5.84
2023-07-26T04:40:00,crh,4.62
2023-07-26T04:41:00,crh,4.27
2023-07-26T04:42:00,crh,6.15
2023-07-26T04:43:00,crh,4.41
2023-07-26T04:44:00,crh,4.74
2023-07-26T04:45:00,crh,5.82
2023-07-26T04:46:00,crh,4.59
2023-07-26T04:47:00,crh,5.87
2023-07-26T04:48:00,crh,4.55
2023-07-26T04:49:00,crh,3.92
2023-07-26T04:50:00,crh,4.24
2023-07-26T04:51:00,crh,3.91
2023-07-26T04:52:00,crh,4.47
2023-07-26T04:53:00,crh,3.87
2023-07-26T04:54:00,crh,5.76
2023-07-26T04:55:00,crh,4.27
2023-07-26T04:56:00,crh,4.60
2023-07-26T04:57:00,crh,9.58
2023-07-26T04:58:00,crh,8.48
2023-07-26T04:59:00,crh,9.74
2023-07-26T05:00:00,crh,8.20
2023-07-26T05:01:00,crh,10.06
2023-07-26T05:02:00,crh,8.43
2023-07-26T05:03:00,crh,8.50
2023-07-26T05:04:00,crh,4.23
2023-07-26T05:05:00,crh,4.56
2023-07-26T05:06:00,crh,4.23
2023-07-26T05:07:00,crh,4.24
2023-07-26T05:08:00,crh,3.84
2023-07-26T05:09:00,crh,5.38
2023-07-26T05:10:00,crh,3.48
2023-07-26T05:11:00,crh,5.57
2023-07-26T05:12:00,crh,5.69
2023-07-26T05:13:00,crh,3.79
2023-07-26T05:14:00,crh,3.81
2023-07-26T05:15:00,crh,3.79
2023-07-26T05:16:00,crh,4.15
2023-07-26T05:17:00,crh,5.38
2023-07-26T05:18:00,crh,4.15
2023-07-26T05:19:00,crh,3.82
2023-07-26T05:20:00,crh,6.92
2023-07-26T05:21:00,crh,3.80
2023-07-26T05:22:00,crh,4.12
2023-07-26T05:23:00,crh,3.80
2023-07-26T05:24:00,crh,5.35
2023-07-26T05:25:00,crh,3.78
2023-07-26T05:26:00,crh,3.73
2023-07-26T05:27:00,crh,3.70
2023-07-26T05:28:00,crh,3.37
2023-07-26T05:29:00,crh,3.49
2023-07-26T05:30:00,crh,6.29
2023-07-26T05:31:00,crh,4.38
2023-07-26T05:32:00,crh,4.12
2023-07-26T05:33:00,crh,4.62
2023-07-26T05:34:00,crh,4.30
2023-07-26T05:35:00,crh,7.92
2023-07-26T05:36:00,crh,9.54
2023-07-26T05:37:00,crh,8.42
2023-07-26T05:38:00,crh,9.67
2023-07-26T05:39:00,crh,8.45
2023-07-26T05:40:00,crh,8.11
2023-07-26T05:41:00,crh,8.70
2023-07-26T05:42:00,crh,4.20
2023-07-26T05:43:00,crh,4.21
2023-07-26T05:44:00,crh,4.51
2023-07-26T05:45:00,crh,6.07
2023-07-26T05:46:00,crh,4.19
2023-07-26T05:47:00,crh,3.86
2023-07-26T05:48:00,crh,3.86
2023-07-26T05:49:00,crh,5.04
2023-07-26T05:50:00,crh,3.44
2023-07-26T05:51:00,crh,3.77
2023-07-26T05:52:00,crh,3.85
2023-07-26T05:53:00,crh,4.09
2023-07-26T05:54:00,crh,5.33
2023-07-26T05:55:00,crh,4.11
2023-07-26T05:56:00,crh,3.78
2023-07-26T05:57:00,crh,4.07
2023-07-26T05:58:00,crh,3.79
2023-07-26T05:59:00,crh,4.17
2023-07-26T06:00:00,crh,6.06
2023-07-26T06:01:00,crh,4.09
2023-07-26T06:02:00,crh,4.08
2023-07-26T06:03:00,crh,4.08
2023-07-26T06:04:00,crh,4.40
2023-07-26T06:05:00,crh,4.08
2023-07-26T06:06:00,crh,4.39
2023-07-26T06:07:00,crh,3.74
2023-07-26T06:08:00,crh,4.09
2023-07-26T06:09:00,crh,3.74
2023-07-26T06:10:00,crh,4.08
2023-07-26T06:11:00,crh,4.08
2023-07-26T06:12:00,crh,4.05
2023-07-26T06:13:00,crh,4.71
2023-07-26T06:14:00,crh,3.72
2023-07-26T06:15:00,crh,4.02
2023-07-26T06:16:00,crh,3.70
2023-07-26T06:17:00,crh,3.99
2023-07-26T06:18:00,crh,7.35
2023-07-26T06:19:00,crh,7.91
2023-07-26T06:20:00,crh,7.63
2023-07-26T06:21:00,crh,8.03
2023-07-26T06:22:00,crh,9.24
2023-07-26T06:23:00,crh,7.84
2023-07-26T06:24:00,crh,9.72
2023-07-26T06:25:00,crh,5.94
2023-07-26T06:26:00,crh,5.34
2023-07-26T06:27:00,crh,3.90
2023-07-26T06:28:00,crh,5.02
2023-07-26T06:29:00,crh,4.99
2023-07-26T06:30:00,crh,3.79
2023-07-26T06:31:00,crh,3.76
2023-07-26T06:32:00,crh,5.62
2023-07-26T06:33:00,crh,3.76
2023-07-26T06:34:00,crh,4.04
2023-07-26T06:35:00,crh,5.35
2023-07-26T06:36:00,crh,5.69
2023-07-26T06:37:00,crh,5.36
2023-07-26T06:38:00,crh,4.30
2023-07-26T06:39:00,crh,5.48
2023-07-26T06:40:00,crh,4.27
2023-07-26T06:41:00,crh,4.27
2023-07-26T06:42:00,crh,3.93
2023-07-26T06:43:00,crh,4.27
2023-07-26T06:44:00,crh,4.16
2023-07-26T06:45:00,crh,3.93
2023-07-26T06:46:00,crh,5.16
2023-07-26T06:47:00,crh,3.96
2023-07-26T06:48:00,crh,5.16
2023-07-26T06:49:00,crh,3.96
2023-07-26T06:50:00,crh,5.62
2023-07-26T06:51:00,crh,4.28
2023-07-26T06:52:00,crh,3.95
2023-07-26T06:53:00,crh,5.36
2023-07-26T06:54:00,crh,5.50
2023-07-26T06:55:00,crh,4.30
2023-07-26T06:56:00,crh,5.82
2023-07-26T06:57:00,crh,4.29
2023-07-26T06:58:00,crh,3.96
2023-07-26T06:59:00,crh,5.67
2023-07-26T07:00:00,crh,8.03
2023-07-26T07:01:00,crh,19.14
2023-07-26T07:02:00,crh,10.23
2023-07-26T07:03:00,crh,8.79
2023-07-26T07:04:00,crh,9.14
2023-07-26T07:05:00,crh,10.67
2023-07-26T07:06:00,crh,4.93
2023-07-26T07:07:00,crh,4.91
2023-07-26T07:08:00,crh,4.92
2023-07-26T07:09:00,crh,4.92
2023-07-26T07:10:00,crh,6.74
2023-07-26T07:11:00,crh,5.22
2023-07-26T07:12:00,crh,5.24
2023-07-26T07:13:00,crh,6.38
2023-07-26T07:14:00,crh,5.37
2023-07-26T07:15:00,crh,5.11
2023-07-26T07:16:00,crh,6.59
2023-07-26T07:17:00,crh,5.06
2023-07-26T07:18:00,crh,5.06
2023-07-26T07:19:00,crh,6.73
2023-07-26T07:20:00,crh,5.21
2023-07-26T07:21:00,crh,5.30
2023-07-26T07:22:00,crh,6.66
2023-07-26T07:23:00,crh,7.09
2023-07-26T07:24:00,crh,7.12
2023-07-26T07:25:00,crh,8.29
2023-07-26T07:26:00,crh,6.79
2023-07-26T07:27:00,crh,6.46
2023-07-26T07:28:00,crh,6.89
2023-07-26T07:29:00,crh,6.92
2023-07-26T07:30:00,crh,6.93
2023-07-26T07:31:00,crh,7.44
2023-07-26T07:32:00,crh,7.26
2023-07-26T07:33:00,crh,7.30
2023-07-26T07:34:00,crh,8.46
2023-07-26T07:35:00,crh,7.26
2023-07-26T07:36:00,crh,10.45
2023-07-26T07:37:00,crh,11.87
2023-07-26T07:38:00,crh,10.58
2023-07-26T07:39:00,crh,11.68
2023-07-26T07:40:00,crh,9.81
2023-07-26T07:41:00,crh,10.91
2023-07-26T07:42:00,crh,11.07
2023-07-26T07:43:00,crh,6.94
2023-07-26T07:44:00,crh,6.35
2023-07-26T07:45:00,crh,6.36
2023-07-26T07:46:00,crh,7.53
2023-07-26T07:47:00,crh,5.95
2023-07-26T07:48:00,crh,5.94
2023-07-26T07:49:00,crh,8.37
2023-07-26T07:50:00,crh,6.65
2023-07-26T07:51:00,crh,6.96
2023-07-26T07:52:00,crh,7.45
2023-07-26T07:53:00,crh,6.33
2023-07-26T07:54:00,crh,6.31
2023-07-26T07:55:00,crh,6.25
2023-07-26T07:56:00,crh,7.53
2023-07-26T07:57:00,crh,6.28
2023-07-26T07:58:00,crh,8.51
2023-07-26T07:59:00,crh,6.92
2023-07-26T08:00:00,crh,8.05
2023-07-26T08:01:00,crh,6.25
2023-07-26T08:02:00,crh,6.23
2023-07-26T08:03:00,crh,6.39
2023-07-26T08:04:00,crh,6.35
2023-07-26T08:05:00,crh,7.74
2023-07-26T08:06:00,crh,6.19
2023-07-26T08:07:00,crh,7.80
2023-07-26T08:08:00,crh,10.41
2023-07-26T08:09:00,crh,10.17
2023-07-26T08:10:00,crh,11.45
2023-07-26T08:11:00,crh,9.88
2023-07-26T08:12:00,crh,10.19
2023-07-26T08:13:00,crh,10.70
2023-07-26T08:14:00,crh,10.33
2023-07-26T08:15:00,crh,10.20
2023-07-26T08:16:00,crh,12.42
2023-07-26T08:17:00,crh,10.87
2023-07-26T08:18:00,crh,6.91
2023-07-26T08:19:00,crh,6.27
2023-07-26T08:20:00,crh,6.30
2023-07-26T08:21:00,crh,6.27
2023-07-26T08:22:00,crh,7.43
2023-07-26T08:23:00,crh,7.73
2023-07-26T08:24:00,crh,6.21
2023-07-26T08:25:00,crh,7.32
2023-07-26T08:26:00,crh,8.87
2023-07-26T08:27:00,crh,7.39
2023-07-26T08:28:00,crh,6.74
2023-07-26T08:29:00,crh,8.26
2023-07-26T08:30:00,crh,6.39
2023-07-26T08:31:00,crh,6.37
2023-07-26T08:32:00,crh,6.35
2023-07-26T08:33:00,crh,6.33
2023-07-26T08:34:00,crh,12.41
2023-07-26T08:35:00,crh,10.90
2023-07-26T08:36:00,crh,11.36
2023-07-26T08:37:00,crh,10.74
2023-07-26T08:38:00,crh,10.71
2023-07-26T08:39:00,crh,11.93
2023-07-26T08:40:00,crh,10.29
2023-07-26T08:41:00,crh,10.32
2023-07-26T08:42:00,crh,10.26
2023-07-26T08:43:00,crh,6.93
2023-07-26T08:44:00,crh,16.59
2023-07-26T08:45:00,crh,17.89
2023-07-26T08:46:00,crh,15.62
2023-07-26T08:47:00,crh,15.44
2023-07-26T08:48:00,crh,6.31
2023-07-26T08:49:00,crh,6.21
2023-07-26T08:50:00,crh,6.21
2023-07-26T08:51:00,crh,5.88
2023-07-26T08:52:00,crh,6.61
2023-07-26T08:53:00,crh,8.51
2023-07-26T08:54:00,crh,8.54
2023-07-26T08:55:00,crh,6.47
2023-07-26T08:56:00,crh,6.50
2023-07-26T08:57:00,crh,6.51
2023-07-26T08:58:00,crh,6.99
2023-07-26T08:59:00,crh,6.44
2023-07-26T09:00:00,crh,6.42
2023-07-26T09:01:00,crh,8.71
2023-07-26T09:02:00,crh,11.03
2023-07-26T09:03:00,crh,11.09
2023-07-26T09:04:00,crh,12.04
2023-07-26T09:05:00,crh,10.47
2023-07-26T09:06:00,crh,12.04
2023-07-26T09:07:00,crh,10.43
2023-07-26T09:08:00,crh,10.41
2023-07-26T09:09:00,crh,11.55
2023-07-26T09:10:00,crh,10.43
2023-07-26T09:11:00,crh,7.17
2023-07-26T09:12:00,crh,7.18
2023-07-26T09:13:00,crh,7.18
2023-07-26T09:14:00,crh,6.19
2023-07-26T09:15:00,crh,6.77
2023-07-26T09:16:00,crh,6.22
2023-07-26T09:17:00,crh,7.64
2023-07-26T09:18:00,crh,6.53
2023-07-26T09:19:00,crh,6.54
2023-07-26T09:20:00,crh,6.86
2023-07-26T09:21:00,crh,7.28
2023-07-26T09:22:00,crh,8.78
2023-07-26T09:23:00,crh,7.02
2023-07-26T09:24:00,crh,7.01
2023-07-26T09:25:00,crh,7.02
2023-07-26T09:26:00,crh,6.99
2023-07-26T09:27:00,crh,10.57
2023-07-26T09:28:00,crh,10.61
2023-07-26T09:29:00,crh,11.69
2023-07-26T09:30:00,crh,13.27
2023-07-26T09:31:00,crh,11.74
2023-07-26T09:32:00,crh,11.06
2023-07-26T09:33:00,crh,12.38
2023-07-26T09:34:00,crh,11.08
2023-07-26T09:35:00,crh,10.99
2023-07-26T09:36:00,crh,6.99
2023-07-26T09:37:00,crh,8.88
2023-07-26T09:38:00,crh,7.03
2023-07-26T09:39:00,crh,7.81
2023-07-26T09:40:00,crh,6.29
2023-07-26T09:41:00,crh,7.81
2023-07-26T09:42:00,crh,6.46
2023-07-26T09:43:00,crh,6.37
2023-07-26T09:44:00,crh,7.88
2023-07-26T09:45:00,crh,6.82
2023-07-26T09:46:00,crh,6.61
2023-07-26T09:47:00,crh,6.61
2023-07-26T09:48:00,crh,6.94
2023-07-26T09:49:00,crh,6.27
2023-07-26T09:50:00,crh,6.28
2023-07-26T09:51:00,crh,7.82
2023-07-26T09:52:00,crh,6.23
2023-07-26T09:53:00,crh,6.31
2023-07-26T09:54:00,crh,6.40
2023-07-26T09:55:00,crh,11.98
2023-07-26T09:56:00,crh,11.03
2023-07-26T09:57:00,crh,10.35
2023-07-26T09:58:00,crh,10.34
2023-07-26T09:59:00,crh,10.42
2023-07-26T10:00:00,crh,12.26
2023-07-26T10:01:00,crh,11.04
2023-07-26T10:02:00,crh,10.89
2023-07-26T10:03:00,crh,10.89
2023-07-26T10:04:00,crh,11.62
2023-07-26T10:05:00,crh,7.68
2023-07-26T10:06:00,crh,7.58
2023-07-26T10:07:00,crh,8.45
2023-07-26T10:08:00,crh,6.86
2023-07-26T10:09:00,crh,8.38
2023-07-26T10:10:00,crh,8.03
2023-07-26T10:11:00,crh,7.02
2023-07-26T10:12:00,crh,7.15
2023-07-26T10:13:00,crh,7.40
2023-07-26T10:14:00,crh,7.76
2023-07-26T10:15:00,crh,7.08
2023-07-26T10:16:00,crh,8.61
2023-07-26T10:17:00,crh,7.10
2023-07-26T10:18:00,crh,7.51
2023-07-26T10:19:00,crh,9.39
2023-07-26T10:20:00,crh,12.72
2023-07-26T10:21:00,crh,11.49
2023-07-26T10:22:00,crh,12.24
2023-07-26T10:23:00,crh,12.29
2023-07-26T10:24:00,crh,13.11
2023-07-26T10:25:00,crh,11.56
2023-07-26T10:26:00,crh,11.60
2023-07-26T10:27:00,crh,11.60
2023-07-26T10:28:00,crh,11.55
2023-07-26T10:29:00,crh,8.99
2023-07-26T10:30:00,crh,8.20
2023-07-26T10:31:00,crh,8.21
2023-07-26T10:32:00,crh,8.68
2023-07-26T10:33:00,crh,7.68
2023-07-26T10:34:00,crh,9.15
2023-07-26T10:35:00,crh,8.71
2023-07-26T10:36:00,crh,6.83
2023-07-26T10:37:00,crh,8.35
2023-07-26T10:38:00,crh,6.85
2023-07-26T10:39:00,crh,7.58
2023-07-26T10:40:00,crh,7.88
2023-07-26T10:41:00,crh,7.88
2023-07-26T10:42:00,crh,8.72
2023-07-26T10:43:00,crh,6.58
2023-07-26T10:44:00,crh,6.55
2023-07-26T10:45:00,crh,10.93
2023-07-26T10:46:00,crh,10.96
2023-07-26T10:47:00,crh,11.69
2023-07-26T10:48:00,crh,11.62
2023-07-26T10:49:00,crh,11.51
2023-07-26T10:50:00,crh,10.89
2023-07-26T10:51:00,crh,11.99
2023-07-26T10:52:00,crh,10.80
2023-07-26T10:53:00,crh,10.80
2023-07-26T10:54:00,crh,11.35
2023-07-26T10:55:00,crh,10.80
2023-07-26T10:56:00,crh,7.80
2023-07-26T10:57:00,crh,7.82
2023-07-26T10:58:00,crh,7.84
2023-07-26T10:59:00,crh,7.15
2023-07-26T11:00:00,crh,7.15
2023-07-26T11:01:00,crh,7.13
2023-07-26T11:02:00,crh,7.05
2023-07-26T11:03:00,crh,7.04
2023-07-26T11:04:00,crh,8.26
2023-07-26T11:05:00,crh,7.88
2023-07-26T11:06:00,crh,7.78
2023-07-26T11:07:00,crh,7.76
2023-07-26T11:08:00,crh,7.49
2023-07-26T11:09:00,crh,7.52
2023-07-26T11:10:00,crh,7.43
2023-07-26T11:11:00,crh,8.16
2023-07-26T11:12:00,crh,9.07
2023-07-26T11:13:00,crh,12.52
2023-07-26T11:14:00,crh,14.60
2023-07-26T11:15:00,crh,12.93
2023-07-26T11:16:00,crh,12.33
2023-07-26T11:17:00,crh,12.41
2023-07-26T11:18:00,crh,12.98
2023-07-26T11:19:00,crh,12.39
2023-07-26T11:20:00,crh,13.09
2023-07-26T11:21:00,crh,12.46
2023-07-26T11:22:00,crh,13.16
2023-07-26T11:23:00,crh,9.26
2023-07-26T11:24:00,crh,10.84
2023-07-26T11:25:00,crh,7.75
2023-07-26T11:26:00,crh,7.73
2023-07-26T11:27:00,crh,7.73
2023-07-26T11:28:00,crh,7.67
2023-07-26T11:29:00,crh,9.19
2023-07-26T11:30:00,crh,7.65
2023-07-26T11:31:00,crh,9.60
2023-07-26T11:32:00,crh,8.42
2023-07-26T11:33:00,crh,9.89
2023-07-26T11:34:00,crh,7.63
2023-07-26T11:35:00,crh,7.61
2023-07-26T11:36:00,crh,7.69
2023-07-26T11:37:00,crh,9.23
2023-07-26T11:38:00,crh,7.61
2023-07-26T11:39:00,crh,7.62
2023-07-26T11:40:00,crh,12.22
2023-07-26T11:41:00,crh,13.81
2023-07-26T11:42:00,crh,12.35
2023-07-26T11:43:00,crh,11.65
2023-07-26T11:44:00,crh,11.69
2023-07-26T11:45:00,crh,11.70
2023-07-26T11:46:00,crh,11.65
2023-07-26T11:47:00,crh,11.63
2023-07-26T11:48:00,crh,12.37
2023-07-26T11:49:00,crh,8.82
2023-07-26T11:50:00,crh,8.25
2023-07-26T11:51:00,crh,7.58
2023-07-26T11:52:00,crh,7.58
2023-07-26T11:53:00,crh,7.57
2023-07-26T11:54:00,crh,7.51
2023-07-26T11:55:00,crh,7.50
2023-07-26T11:56:00,crh,7.50
2023-07-26T11:57:00,crh,8.14
2023-07-26T11:58:00,crh,8.12
2023-07-26T11:59:00,crh,8.14
2023-07-26T12:00:00,crh,8.03
2023-07-26T12:01:00,crh,7.96
2023-07-26T12:02:00,crh,7.95
2023-07-26T12:03:00,crh,8.46
2023-07-26T12:04:00,crh,7.89
2023-07-26T12:05:00,crh,7.88
2023-07-26T12:06:00,crh,8.61
2023-07-26T12:07:00,crh,8.60
2023-07-26T12:08:00,crh,8.59
2023-07-26T12:09:00,crh,7.90
2023-07-26T12:10:00,crh,12.12
2023-07-26T12:11:00,crh,12.75
2023-07-26T12:12:00,crh,12.33
2023-07-26T12:13:00,crh,12.51
2023-07-26T12:14:00,crh,12.34
2023-07-26T12:15:00,crh,14.42
2023-07-26T12:16:00,crh,14.47
2023-07-26T12:17:00,crh,12.53
2023-07-26T12:18:00,crh,11.82
2023-07-26T12:19:00,crh,7.68
2023-07-26T12:20:00,crh,9.21
2023-07-26T12:21:00,crh,7.59
2023-07-26T12:22:00,crh,7.60
2023-07-26T12:23:00,crh,7.15
2023-07-26T12:24:00,crh,7.67
2023-07-26T12:25:00,crh,7.67
2023-07-26T12:26:00,crh,9.22
2023-07-26T12:27:00,crh,7.04
2023-07-26T12:28:00,crh,8.15
2023-07-26T12:29:00,crh,7.56
2023-07-26T12:30:00,crh,7.51
2023-07-26T12:31:00,crh,7.17
2023-07-26T12:32:00,crh,7.17
2023-07-26T12:33:00,crh,7.91
2023-07-26T12:34:00,crh,7.76
2023-07-26T12:35:00,crh,7.75
2023-07-26T12:36:00,crh,12.68
2023-07-26T12:37:00,crh,11.15
2023-07-26T12:38:00,crh,11.19
2023-07-26T12:39:00,crh,11.14
2023-07-26T12:40:00,crh,11.16
2023-07-26T12:41:00,crh,11.20
2023-07-26T12:42:00,crh,13.43
2023-07-26T12:43:00,crh,11.96
2023-07-26T12:44:00,crh,11.97
2023-07-26T12:45:00,crh,7.15
2023-07-26T12:46:00,crh,7.16
2023-07-26T12:47:00,crh,7.83
2023-07-26T12:48:00,crh,7.07
2023-07-26T12:49:00,crh,7.07
2023-07-26T12:50:00,crh,7.08
2023-07-26T12:51:00,crh,7.10
2023-07-26T12:52:00,crh,7.82
2023-07-26T12:53:00,crh,8.21
2023-07-26T12:54:00,crh,8.24
2023-07-26T12:55:00,crh,7.52
2023-07-26T12:56:00,crh,7.51
2023-07-26T12:57:00,crh,9.04
2023-07-26T12:58:00,crh,7.40
2023-07-26T12:59:00,crh,7.38
2023-07-26T13:00:00,crh,7.38
2023-07-26T13:01:00,crh,7.38
2023-07-26T13:02:00,crh,8.13
2023-07-26T13:03:00,crh,8.29
2023-07-26T13:04:00,crh,11.53
2023-07-26T13:05:00,crh,13.35
2023-07-26T13:06:00,crh,11.60
2023-07-26T13:07:00,crh,11.75
2023-07-26T13:08:00,crh,11.65
2023-07-26T13:09:00,crh,11.28
2023-07-26T13:10:00,crh,11.29
2023-07-26T13:11:00,crh,11.18
2023-07-26T13:12:00,crh,11.91
2023-07-26T13:13:00,crh,11.96
2023-07-26T13:14:00,crh,7.76
2023-07-26T13:15:00,crh,7.09
2023-07-26T13:16:00,crh,7.45
2023-07-26T13:17:00,crh,7.09
2023-07-26T13:18:00,crh,7.02
2023-07-26T13:19:00,crh,8.53
2023-07-26T13:20:00,crh,7.02
2023-07-26T13:21:00,crh,7.01
2023-07-26T13:22:00,crh,8.31
2023-07-26T13:23:00,crh,9.28
2023-07-26T13:24:00,crh,9.04
2023-07-26T13:25:00,crh,7.10
2023-07-26T13:26:00,crh,7.17
2023-07-26T13:27:00,crh,7.19
2023-07-26T13:28:00,crh,7.10
2023-07-26T13:29:00,crh,7.08
2023-07-26T13:30:00,crh,7.08
2023-07-26T13:31:00,crh,12.18
2023-07-26T13:32:00,crh,22.22
2023-07-26T13:33:00,crh,21.21
2023-07-26T13:34:00,crh,21.05
2023-07-26T13:35:00,crh,11.92
2023-07-26T13:36:00,crh,11.31
2023-07-26T13:37:00,crh,11.29
2023-07-26T13:38:00,crh,11.29
2023-07-26T13:39:00,crh,7.08
2023-07-26T13:40:00,crh,7.02